Home > Weather > Renens > Past weeks

Flag for Switzerland Weather for the Past 2 Weeks in Renens, Vaud, Switzerland

Now
41 °F

Light rain. Passing clouds.


Feels Like: 36 °F
Forecast: 45 / 56 °F
Wind: 8 mph from Southwest

Location: Payerne

Current Time: May 1, 2016 at 2:45:18 AM

Latest Report: May 1, 2016 at 1:50 AM


Visibility: N/A

Pressure: 30.01 "Hg

Humidity: 100%

Dew Point: 41 °F

Location of RenensLocation

Historic Weather in Renens — Graph

°F

Renens Temperature Yesterday

Maximum temperature yesterday: 59 °F (at 1:50 PM)
Minimum temperature yesterday: 37 °F (at 2:50 AM)
Average temperature yesterday: 46 °F

High & Low Weather Summary for the Past Weeks

 TemperatureHumidityPressure
High68 °F (Apr 22, 3:50 PM)100% (Apr 16, 12:50 AM)30.30 "Hg (Apr 16, 12:50 AM)
Low30 °F (Apr 28, 4:50 AM)38% (Apr 28, 2:50 PM)29.62 "Hg (Apr 16, 7:50 PM)
Average47 °F78%29.98 "Hg
* Reported Apr 16 12:50 AM — May 1 12:50 AM, Renens, Weather by CustomWeather, © 2016

Note: Actual official high and low records may vary slightly from our data, if they occured in-between our weather recording intervals... More about our weather records

Advertising

Renens Weather History for the Previous 24 Hours

Scroll right to see more
 ConditionsComfort  
Time TempWeatherWind HumidityBarometerVisibility
12:50 AM
Sun, May 1
43 °FLight rain. Passing clouds.7 mph100%30.01 "HgN/A
11:50 PM
Sat, Apr 30
43 °FLight rain. Passing clouds.6 mph100%30.01 "HgN/A
10:50 PM43 °FLight rain. Passing clouds.7 mph100%30.01 "HgN/A
9:50 PM45 °FLight rain. Passing clouds.6 mph93%30.01 "HgN/A
8:50 PM45 °FLight rain. Passing clouds.8 mph93%30.01 "HgN/A
7:50 PM46 °FLight rain. Partly sunny.6 mph100%29.98 "HgN/A
6:50 PM48 °FLight rain. Partly sunny.7 mph87%29.98 "HgN/A
5:50 PM48 °FLight rain. Passing clouds.6 mph87%29.98 "HgN/A
4:50 PM48 °FLight rain. Scattered clouds.8 mph87%29.98 "HgN/A
3:50 PM50 °FLight rain. Partly sunny.16 mph82%29.95 "HgN/A
2:50 PM57 °FRefreshingly cool.5 mph59%29.92 "HgN/A
1:50 PM59 °FPassing clouds.No wind55%29.92 "HgN/A
12:50 PM57 °FRefreshingly cool.2 mph48%29.95 "HgN/A
11:50 AM55 °FRefreshingly cool.No wind59%29.98 "HgN/A
10:50 AM50 °FCool.2 mph71%29.98 "HgN/A
9:50 AM48 °FPassing clouds.1 mph76%30.01 "HgN/A
8:50 AM46 °FPassing clouds.No wind76%30.01 "HgN/A
7:50 AM41 °FScattered clouds.No wind87%30.01 "HgN/A
6:50 AM39 °FPassing clouds.No wind93%30.01 "HgN/A
5:50 AM37 °FPassing clouds.1 mph93%30.01 "HgN/A
4:50 AM39 °FPassing clouds.No wind93%30.01 "HgN/A
3:50 AM39 °FPassing clouds.1 mph87%30.01 "HgN/A
2:50 AM37 °FChilly.2 mph93%30.01 "HgN/A
Weather by CustomWeather, © 2016

See weather overviewHow to use our weather pages